| time (UTC) | temp F | wind direction | speed knots | gust knots | rain 1hr in | rain 24hr in | rain mn in | humidity % | barometer mb |
| 20260510044548 | 63 | 75 | 1.7 | 6.1 | 0.00 | 0.01 | 0.01 | 67 | 1027.5 |
| 20260510043034 | 62 | 80 | 3.5 | 7.0 | 0.00 | 0.01 | 0.01 | 66 | 1027.5 |
| 20260510041556 | 62 | 144 | 3.5 | 6.1 | 0.00 | 0.01 | 0.01 | 67 | 1027.5 |
| 20260510040050 | 63 | 116 | 2.6 | 6.1 | 0.00 | 0.01 | 0.01 | 68 | 1027.5 |
| 20260510034518 | 63 | 83 | 3.5 | 7.8 | 0.00 | 0.01 | 0.01 | 66 | 1027.5 |
| 20260510033058 | 62 | 73 | 3.5 | 7.0 | 0.00 | 0.01 | 0.01 | 67 | 1027.5 |
| 20260510031600 | 62 | 37 | 1.7 | 6.1 | 0.00 | 0.01 | 0.01 | 67 | 1027.7 |
| 20260510030051 | 62 | 154 | 3.5 | 7.0 | 0.00 | 0.01 | 0.01 | 68 | 1027.7 |
| 20260510024557 | 62 | 177 | 0.9 | 6.1 | 0.00 | 0.01 | 0.01 | 70 | 1027.8 |
| 20260510023042 | 61 | 141 | 3.5 | 6.1 | 0.00 | 0.01 | 0.01 | 69 | 1028.0 |
| 20260510021600 | 61 | 127 | 5.2 | 8.7 | 0.00 | 0.01 | 0.01 | 70 | 1028.3 |
| 20260510020032 | 59 | 111 | 1.7 | 7.0 | 0.00 | 0.01 | 0.01 | 73 | 1028.4 |
| 20260510014548 | 59 | 132 | 0.9 | 5.2 | 0.00 | 0.01 | 0.01 | 74 | 1028.7 |
| 20260510013025 | 58 | 136 | 1.7 | 6.1 | 0.00 | 0.01 | 0.01 | 74 | 1028.9 |
| 20260510011532 | 57 | 247 | 0.9 | 5.2 | 0.00 | 0.01 | 0.01 | 76 | 1029.0 |
| 20260510010012 | 57 | 147 | 1.7 | 5.2 | 0.00 | 0.01 | 0.01 | 78 | 1029.3 |
| 20260510004509 | 55 | 139 | 2.6 | 6.1 | 0.00 | 0.01 | 0.01 | 79 | 1029.4 |
| 20260510003043 | 54 | 182 | 1.7 | 5.2 | 0.00 | 0.01 | 0.01 | 81 | 1029.6 |
| 20260510001552 | 53 | 211 | 1.7 | 4.3 | 0.00 | 0.01 | 0.01 | 87 | 1029.6 |
| 20260510000027 | 52 | 130 | 2.6 | 6.1 | 0.00 | 0.01 | 0.01 | 92 | 1029.6 |
| 20260509234538 | 49 | 239 | 0.9 | 3.5 | 0.00 | 0.01 | 0.01 | 96 | 1029.6 |
| 20260509233010 | 48 | 298 | 0.0 | 0.9 | 0.00 | 0.01 | 0.01 | 97 | 1029.5 |
| 20260509231514 | 46 | 278 | 0.0 | 0.9 | 0.00 | 0.01 | 0.01 | 98 | 1029.5 |
| 20260509230052 | 44 | 276 | 0.0 | 1.7 | 0.00 | 0.01 | 0.01 | 97 | 1029.5 |
| 20260509224602 | 44 | 277 | 0.9 | 1.7 | 0.00 | 0.01 | 0.01 | 98 | 1029.3 |
| 20260509223036 | 43 | 285 | 0.0 | 0.9 | 0.00 | 0.01 | 0.01 | 98 | 1029.3 |
| 20260509221539 | 41 | 294 | 0.0 | 0.9 | 0.00 | 0.01 | 0.01 | 98 | 1029.2 |
| 20260509220033 | 39 | 294 | 0.0 | 0.9 | 0.00 | 0.01 | 0.01 | 98 | 1029.1 |
| 20260509214555 | 38 | 292 | 0.0 | 1.7 | 0.00 | 0.01 | 0.01 | 97 | 1029.0 |
| 20260509213038 | 38 | 297 | 0.0 | 1.7 | 0.00 | 0.01 | 0.01 | 97 | 1028.8 |
| 20260509211552 | 37 | 291 | 0.9 | 1.7 | 0.00 | 0.01 | 0.01 | 97 | 1028.6 |
| 20260509210044 | 37 | 291 | 0.0 | 1.7 | 0.00 | 0.01 | 0.01 | 98 | 1028.4 |
| 20260509204549 | 36 | 301 | 0.0 | 0.9 | 0.01 | 0.01 | 0.01 | 97 | 1028.2 |
| 20260509203039 | 36 | 221 | 0.0 | 0.9 | 0.01 | 0.01 | 0.01 | 97 | 1028.0 |
| 20260509201537 | 37 | 319 | 0.0 | 0.9 | 0.01 | 0.01 | 0.01 | 97 | 1027.8 |
| 20260509200019 | 37 | 319 | 0.0 | 0.9 | 0.01 | 0.01 | 0.01 | 97 | 1027.7 |
| 20260509194535 | 37 | 315 | 0.0 | 0.9 | 0.00 | 0.00 | 0.00 | 97 | 1027.5 |
| 20260509193009 | 38 | 301 | 0.0 | 0.9 | 0.00 | 0.00 | 0.00 | 97 | 1027.2 |
| 20260509191521 | 37 | 301 | 0.0 | 0.9 | 0.00 | 0.00 | 0.00 | 97 | 1027.1 |
| 20260509190052 | 37 | 313 | 0.0 | 0.9 | 0.00 | 0.00 | 0.00 | 97 | 1026.9 |
| 20260509184507 | 37 | 313 | 0.0 | 0.9 | 0.00 | 0.00 | 0.00 | 97 | 1026.7 |
| 20260509183050 | 37 | 299 | 0.0 | 0.9 | 0.00 | 0.00 | 0.00 | 97 | 1026.6 |
| 20260509181511 | 38 | 296 | 0.0 | 0.9 | 0.00 | 0.00 | 0.00 | 96 | 1026.5 |
| 20260509174509 | 38 | 303 | 0.0 | 0.9 | 0.00 | 0.00 | 0.00 | 97 | 1026.3 |
| 20260509173059 | 38 | 310 | 0.0 | 0.9 | 0.00 | 0.00 | 0.00 | 96 | 1026.3 |
| 20260509173001 | 38 | 310 | 0.0 | 0.9 | 0.00 | 0.00 | 0.00 | 96 | 1026.3 |
| 20260509171521 | 38 | 310 | 0.0 | 0.0 | 0.00 | 0.00 | 0.00 | 96 | 1026.3 |
| 20260509170101 | 38 | 310 | 0.0 | 0.9 | 0.00 | 0.00 | 0.00 | 96 | 1026.3 |
| 20260509164531 | 39 | 305 | 0.0 | 0.9 | 0.00 | 0.00 | 0.00 | 97 | 1026.4 |
| 20260509163058 | 39 | 305 | 0.0 | 0.9 | 0.00 | 0.00 | 0.00 | 97 | 1026.4 |
| 20260509161512 | 39 | 305 | 0.0 | 0.0 | 0.00 | 0.00 | 0.00 | 96 | 1026.4 |
| 20260509160055 | 40 | 305 | 0.0 | 0.9 | 0.00 | 0.00 | 0.00 | 96 | 1026.3 |
| 20260509154506 | 40 | 305 | 0.0 | 0.9 | 0.00 | 0.00 | 0.00 | 96 | 1026.3 |
| 20260509153102 | 40 | 305 | 0.0 | 0.9 | 0.00 | 0.00 | 0.00 | 96 | 1026.4 |
| 20260509151516 | 40 | 304 | 0.0 | 0.9 | 0.00 | 0.00 | 0.00 | 96 | 1026.4 |
| 20260509150100 | 40 | 304 | 0.0 | 0.9 | 0.00 | 0.00 | 0.00 | 96 | 1026.6 |
| 20260509144530 | 41 | 304 | 0.0 | 0.9 | 0.00 | 0.00 | 0.00 | 96 | 1026.4 |
| 20260509143016 | 41 | 308 | 0.0 | 0.9 | 0.00 | 0.00 | 0.00 | 95 | 1026.4 |
| 20260509141539 | 40 | 298 | 0.0 | 0.9 | 0.00 | 0.00 | 0.00 | 95 | 1026.4 |
| 20260509140013 | 41 | 298 | 0.0 | 0.0 | 0.00 | 0.00 | 0.00 | 95 | 1026.4 |
| 20260509134538 | 42 | 298 | 0.0 | 0.9 | 0.00 | 0.00 | 0.00 | 95 | 1026.4 |
| 20260509133023 | 42 | 298 | 0.0 | 0.9 | 0.00 | 0.00 | 0.00 | 94 | 1026.3 |
| 20260509131544 | 43 | 298 | 0.0 | 0.9 | 0.00 | 0.00 | 0.00 | 95 | 1026.3 |
| 20260509130029 | 42 | 297 | 0.0 | 0.9 | 0.00 | 0.00 | 0.00 | 95 | 1026.3 |
| 20260509124557 | 42 | 298 | 0.0 | 0.9 | 0.00 | 0.00 | 0.00 | 94 | 1026.4 |
| 20260509123049 | 42 | 297 | 0.0 | 0.0 | 0.00 | 0.00 | 0.00 | 94 | 1026.4 |
| 20260509121504 | 43 | 297 | 0.0 | 0.9 | 0.00 | 0.00 | 0.00 | 93 | 1026.4 |
| 20260509114511 | 44 | 301 | 0.0 | 0.9 | 0.00 | 0.00 | 0.00 | 93 | 1026.4 |
| 20260509113003 | 44 | 350 | 0.0 | 0.0 | 0.00 | 0.00 | 0.00 | 92 | 1026.3 |
| 20260509111522 | 44 | 350 | 0.0 | 0.0 | 0.00 | 0.00 | 0.00 | 92 | 1026.2 |
| 20260509110010 | 44 | 350 | 0.0 | 0.0 | 0.00 | 0.00 | 0.00 | 91 | 1026.1 |
| 20260509104525 | 45 | 350 | 0.0 | 0.0 | 0.00 | 0.00 | 0.00 | 89 | 1026.0 |
| 20260509103023 | 46 | 333 | 0.0 | 0.9 | 0.00 | 0.00 | 0.00 | 90 | 1025.9 |
| 20260509101551 | 47 | 323 | 0.0 | 0.0 | 0.00 | 0.00 | 0.00 | 87 | 1025.8 |
| 20260509100035 | 48 | 323 | 0.0 | 0.9 | 0.00 | 0.00 | 0.00 | 86 | 1025.7 |
| 20260509094545 | 48 | 7 | 0.0 | 0.0 | 0.00 | 0.00 | 0.00 | 86 | 1025.5 |
| 20260509093039 | 49 | 7 | 0.0 | 0.9 | 0.00 | 0.00 | 0.00 | 84 | 1025.5 |
| 20260509091632 | 50 | 336 | 0.0 | 0.9 | 0.00 | 0.00 | 0.00 | 82 | 1025.5 |
| 20260509090051 | 52 | 63 | 0.0 | 0.9 | 0.00 | 0.00 | 0.00 | 80 | 1025.3 |
| 20260509084515 | 53 | 97 | 0.9 | 2.6 | 0.00 | 0.00 | 0.00 | 79 | 1025.1 |
| 20260509083008 | 52 | 54 | 1.7 | 2.6 | 0.00 | 0.00 | 0.00 | 80 | 1024.9 |
| 20260509081533 | 52 | 34 | 0.0 | 0.0 | 0.00 | 0.00 | 0.00 | 79 | 1024.6 |
| 20260509080025 | 54 | 34 | 0.0 | 1.7 | 0.00 | 0.00 | 0.00 | 76 | 1024.3 |
| 20260509074555 | 54 | 54 | 1.7 | 2.6 | 0.00 | 0.00 | 0.00 | 76 | 1024.1 |
| 20260509073111 | 55 | 62 | 0.0 | 0.9 | 0.00 | 0.00 | 0.00 | 72 | 1023.8 |
| 20260509071558 | 57 | 50 | 0.0 | 0.9 | 0.00 | 0.00 | 0.00 | 70 | 1023.7 |
| 20260509071503 | 57 | 50 | 0.0 | 0.9 | 0.00 | 0.00 | 0.00 | 69 | 1023.6 |
| 20260509070058 | 59 | 107 | 0.0 | 2.6 | 0.00 | 0.00 | 0.00 | 66 | 1023.5 |
| 20260509070003 | 59 | 79 | 0.0 | 2.6 | 0.00 | 0.00 | 0.00 | 65 | 1023.5 |
| 20260509064518 | 61 | 268 | 0.0 | 0.0 | 0.00 | 0.00 | 0.00 | 53 | 1023.2 |
| 20260509063007 | 63 | 275 | 0.0 | 3.5 | 0.00 | 0.00 | 0.00 | 51 | 1023.0 |
| 20260509061502 | 64 | 284 | 0.9 | 2.6 | 0.00 | 0.00 | 0.00 | 51 | 1023.0 |
| 20260509060059 | 63 | 276 | 0.9 | 4.3 | 0.00 | 0.00 | 0.00 | 50 | 1022.9 |
| 20260509054504 | 64 | 287 | 0.9 | 4.3 | 0.00 | 0.00 | 0.00 | 51 | 1022.7 |
| 20260509053046 | 64 | 275 | 0.9 | 2.6 | 0.00 | 0.00 | 0.00 | 51 | 1022.7 |
| 20260509051505 | 64 | 272 | 1.7 | 3.5 | 0.00 | 0.00 | 0.00 | 52 | 1022.7 |
| 20260509050055 | 63 | 100 | 0.9 | 3.5 | 0.00 | 0.00 | 0.00 | 54 | 1022.8 |